M I D A S
Marine Information and Data Acquisition System
Tripno 1076 of the Zeeleeuw from 2006-04-26 06:45:50 to 2006-04-26 13:18:57
Back to CruiseResearch ActivitiesStationsMapUnderway DataData graphs

EquipmentUnitsComments
TimeDGPSUTC
LatitudeDGPSDM.mWGS84
LongitudeDGPSDM.mWGS84
SpeedMeteo Stationm/sRelative wind speed
DirectionMeteo StationdegRelative wind direction
TemperatureMeteo Stationdeg CelciusAir temperature
PressureMeteo StationPaAtmospheric pressure
HumidityMeteo Station%Relative humidity
Missing or incorrect values are displayed as -999
Metereological data collected by the RV Zeeleeuw from 2006-04-26 06:33:57 to 2006-04-26 13:17:11
Time Latitude Longitude Speed Direction Temperature Pressure Humidity
2006-04-26 06:35 51°13.611 2°56.04 -999 190 9.9 101900 100
2006-04-26 06:36 51°13.641 2°55.923 -999 164 10.2 101900 100
2006-04-26 06:37 51°13.693 2°55.818 -999 163 9.9 101910 100
2006-04-26 06:38 51°13.721 2°55.729 -999 179 9.8 101910 100
2006-04-26 06:39 51°13.728 2°55.72 -999 261 9.9 101910 100
2006-04-26 06:40 51°13.726 2°55.719 -999 248 9.9 101910 100
2006-04-26 06:41 51°13.746 2°55.713 -999 312 9.8 101920 100
2006-04-26 06:42 51°13.836 2°55.637 -999 358 9.8 101910 100
2006-04-26 06:43 51°13.964 2°55.546 -999 324 9.8 101910 100
2006-04-26 06:44 51°14.071 2°55.467 -999 345 9.7 101910 100
2006-04-26 06:45 51°14.153 2°55.4 -999 338 9.7 101910 100
2006-04-26 06:46 51°14.243 2°55.286 -999 326 9.6 101910 100
2006-04-26 06:47 51°14.345 2°55.12 -999 335 9.6 101910 100
2006-04-26 06:48 51°14.478 2°54.934 -999 41 9.5 101880 100
2006-04-26 06:49 51°14.644 2°54.771 -999 323 9.4 101880 100
2006-04-26 06:50 51°14.827 2°54.612 -999 316 9.4 101890 100
2006-04-26 06:51 51°15.002 2°54.429 -999 317 9.3 101890 100
2006-04-26 06:52 51°15.184 2°54.279 -999 323 9.3 101890 100
2006-04-26 06:53 51°15.357 2°54.087 -999 324 9.2 101890 100
2006-04-26 06:54 51°15.549 2°53.92 -999 325 9.1 101890 100
2006-04-26 06:55 51°15.729 2°53.772 -999 318 9.1 101880 100
2006-04-26 06:56 51°15.914 2°53.612 -999 320 9.1 101880 100
2006-04-26 06:57 51°16.103 2°53.454 -999 44 9 101880 100
2006-04-26 06:58 51°16.294 2°53.304 -999 313 9 101880 100
2006-04-26 06:59 51°16.478 2°53.169 -999 43 9 101880 100
2006-04-26 07:00 51°16.67 2°53.024 -999 321 8.9 101880 100
2006-04-26 07:01 51°16.858 2°52.885 -999 319 8.9 101880 100
2006-04-26 07:02 51°17.038 2°52.747 -999 227 8.9 101880 100
2006-04-26 07:03 51°17.226 2°52.608 -999 322 8.9 101880 100
2006-04-26 07:04 51°17.408 2°52.465 -999 317 8.8 101880 100
2006-04-26 07:05 51°17.587 2°52.335 -999 312 8.8 101870 100
2006-04-26 07:06 51°17.786 2°52.29 -999 298 8.8 101890 100
2006-04-26 07:07 51°17.978 2°52.305 -999 296 8.8 101890 100
2006-04-26 07:08 51°18.177 2°52.356 -999 299 8.8 101890 100
2006-04-26 07:09 51°18.371 2°52.403 -999 285 8.8 101890 100
2006-04-26 07:10 51°18.557 2°52.458 -999 293 8.8 101890 100
2006-04-26 07:11 51°18.747 2°52.525 -999 287 8.8 101890 100
2006-04-26 07:12 51°18.943 2°52.608 -999 300 8.8 101890 100
2006-04-26 07:13 51°19.128 2°52.69 -999 289 8.8 101900 100
2006-04-26 07:14 51°19.304 2°52.827 -999 289 8.8 101900 100
2006-04-26 07:15 51°19.476 2°52.958 -999 293 8.8 101900 100
2006-04-26 07:16 51°19.651 2°53.092 -999 279 8.8 101890 100
2006-04-26 07:17 51°19.832 2°53.225 -999 285 8.8 101890 100
2006-04-26 07:18 51°20.006 2°53.349 -999 277 8.7 101890 100
2006-04-26 07:19 51°20.184 2°53.486 -999 282 8.7 101900 100
2006-04-26 07:20 51°20.36 2°53.613 -999 281 8.7 101900 100
2006-04-26 07:21 51°20.539 2°53.752 -999 290 8.7 101900 100
2006-04-26 07:22 51°20.713 2°53.883 -999 288 8.7 101900 100
2006-04-26 07:23 51°20.895 2°54.018 -999 300 8.7 101900 100
2006-04-26 07:24 51°21.075 2°54.155 -999 286 8.7 101900 100
2006-04-26 07:25 51°21.249 2°54.285 -999 285 8.7 101900 100
2006-04-26 07:26 51°21.423 2°54.413 -999 286 8.7 101900 100
2006-04-26 07:27 51°21.607 2°54.53 -999 286 8.7 101890 100
2006-04-26 07:28 51°21.796 2°54.618 -999 292 8.7 101900 100
2006-04-26 07:29 51°21.987 2°54.704 -999 283 8.7 101890 100
2006-04-26 07:30 51°22.185 2°54.775 -999 286 8.7 101890 100
2006-04-26 07:31 51°22.383 2°54.835 -999 289 8.6 101890 100
2006-04-26 07:32 51°22.58 2°54.894 -999 294 8.6 101890 100
2006-04-26 07:33 51°22.775 2°54.957 -999 293 8.6 101890 100
2006-04-26 07:34 51°22.966 2°55.026 -999 298 8.6 101900 100
2006-04-26 07:35 51°23.155 2°55.098 -999 294 8.6 101890 100
2006-04-26 07:36 51°23.348 2°55.163 -999 293 8.6 101890 100
2006-04-26 07:37 51°23.547 2°55.218 -999 294 8.6 101890 100
2006-04-26 07:38 51°23.735 2°55.266 -999 301 8.6 101890 100
2006-04-26 07:39 51°23.92 2°55.32 -999 302 8.6 101890 100
2006-04-26 07:40 51°24.113 2°55.368 -999 294 8.6 101890 100
2006-04-26 07:41 51°24.306 2°55.425 -999 299 8.6 101890 100
2006-04-26 07:42 51°24.501 2°55.476 -999 298 8.6 101890 100
2006-04-26 07:43 51°24.7 2°55.536 -999 295 8.6 101890 100
2006-04-26 07:44 51°24.895 2°55.603 -999 303 8.6 101890 100
2006-04-26 07:45 51°25.098 2°55.674 -999 299 8.6 101890 100
2006-04-26 07:46 51°25.292 2°55.735 -999 299 8.6 101890 100
2006-04-26 07:47 51°25.485 2°55.793 -999 306 8.6 101880 100
2006-04-26 07:48 51°25.678 2°55.831 -999 306 8.6 101880 100
2006-04-26 07:49 51°25.872 2°55.867 -999 306 8.6 101880 100
2006-04-26 07:50 51°26.067 2°55.904 -999 294 8.6 101880 100
2006-04-26 07:51 51°26.269 2°55.937 -999 295 8.6 101870 100
2006-04-26 07:52 51°26.46 2°55.957 -999 302 8.6 101880 100
2006-04-26 07:52 51°26.65 2°55.984 -999 306 8.6 101870 100
2006-04-26 07:54 51°26.854 2°56.011 -999 293 8.6 101870 100
2006-04-26 07:55 51°27.05 2°56.033 -999 303 8.6 101870 100
2006-04-26 07:56 51°27.247 2°56.053 -999 303 8.6 101870 100
2006-04-26 07:57 51°27.445 2°56.077 -999 304 8.6 101870 100
2006-04-26 07:58 51°27.645 2°56.125 -999 302 8.6 101870 100
2006-04-26 07:59 51°27.839 2°56.183 -999 298 8.6 101870 100
2006-04-26 08:00 51°28.034 2°56.241 -999 302 8.6 101870 100
2006-04-26 08:01 51°28.236 2°56.302 -999 295 8.6 101870 100
2006-04-26 08:02 51°28.437 2°56.358 -999 294 8.6 101870 100
2006-04-26 08:03 51°28.634 2°56.417 -999 294 8.5 101860 100
2006-04-26 08:04 51°28.837 2°56.481 -999 301 8.6 101860 100
2006-04-26 08:05 51°29.04 2°56.538 -999 296 8.6 101860 100
2006-04-26 08:06 51°29.229 2°56.597 -999 306 8.6 101860 100
2006-04-26 08:07 51°29.424 2°56.659 -999 295 8.6 101860 100
2006-04-26 08:08 51°29.618 2°56.738 -999 291 8.6 101860 100
2006-04-26 08:09 51°29.753 2°56.963 -999 263 8.7 101870 100
2006-04-26 08:10 51°29.893 2°57.175 -999 309 8.7 101870 100
2006-04-26 08:11 51°30.059 2°57.335 -999 295 8.7 101870 100
2006-04-26 08:12 51°30.245 2°57.444 -999 310 8.7 101860 100
2006-04-26 08:13 51°30.433 2°57.522 -999 301 8.7 101860 100
2006-04-26 08:14 51°30.635 2°57.599 -999 300 8.7 101860 100
2006-04-26 08:15 51°30.833 2°57.644 -999 302 8.7 101860 100
2006-04-26 08:16 51°31.037 2°57.605 -999 226 8.7 101850 100
2006-04-26 08:17 51°31.203 2°57.393 -999 328 8.6 101840 100
2006-04-26 08:18 51°31.359 2°57.138 -999 325 8.6 101840 100
2006-04-26 08:19 51°31.519 2°56.893 -999 322 8.6 101840 100
2006-04-26 08:20 51°31.672 2°56.668 -999 323 8.6 101840 100
2006-04-26 08:21 51°31.824 2°56.441 -999 317 8.6 101850 100
2006-04-26 08:22 51°31.971 2°56.227 -999 318 8.6 101850 100
2006-04-26 08:23 51°32.127 2°55.994 -999 226 8.6 101840 100
2006-04-26 08:24 51°32.279 2°55.766 -999 319 8.6 101850 100
2006-04-26 08:24 51°32.422 2°55.547 -999 321 8.6 101840 100
2006-04-26 08:26 51°32.578 2°55.306 -999 325 8.5 101850 100
2006-04-26 08:27 51°32.732 2°55.068 -999 325 8.5 101840 100
2006-04-26 08:28 51°32.879 2°54.821 -999 327 8.5 101840 100
2006-04-26 08:29 51°33.013 2°54.568 -999 328 8.4 101840 100
2006-04-26 08:30 51°33.14 2°54.278 -999 328 8.4 101840 100
2006-04-26 08:31 51°33.254 2°53.971 -999 331 8.4 101840 100
2006-04-26 08:32 51°33.327 2°53.647 -999 350 8.4 101830 100
2006-04-26 08:33 51°33.234 2°53.297 -999 3 8.4 101840 100
2006-04-26 08:34 51°33.118 2°52.947 -999 5 8.4 101850 100
2006-04-26 08:35 51°33.003 2°52.611 -999 6 8.4 101850 100
2006-04-26 08:36 51°32.886 2°52.269 -999 4 8.5 101850 100
2006-04-26 08:37 51°32.768 2°51.922 -999 3 8.5 101840 100
2006-04-26 08:38 51°32.657 2°51.59 -999 3 8.6 101850 100
2006-04-26 08:39 51°32.535 2°51.236 -999 1 8.6 101840 100
2006-04-26 08:40 51°32.412 2°50.913 -999 3 8.6 101850 100
2006-04-26 08:41 51°32.287 2°50.571 -999 2 8.7 101850 100
2006-04-26 08:42 51°32.163 2°50.227 -999 4 8.7 101850 100
2006-04-26 08:43 51°32.04 2°49.893 -999 3 8.7 101850 100
2006-04-26 08:44 51°31.915 2°49.561 -999 4 8.8 101850 100
2006-04-26 08:45 51°31.789 2°49.23 -999 2 8.8 101850 100
2006-04-26 08:46 51°31.665 2°48.9 -999 6 8.9 101860 100
2006-04-26 08:47 51°31.543 2°48.569 -999 4 8.9 101860 100
2006-04-26 08:48 51°31.423 2°48.237 -999 1 8.9 101860 100
2006-04-26 08:49 51°31.301 2°47.909 -999 5 8.9 101860 100
2006-04-26 08:49 51°31.188 2°47.595 -999 4 8.9 101870 100
2006-04-26 08:51 51°31.063 2°47.249 -999 7 9 101870 100
2006-04-26 08:52 51°30.948 2°46.933 -999 5 9 101880 100
2006-04-26 08:53 51°30.822 2°46.598 -999 1 9.1 101870 100
2006-04-26 08:54 51°30.706 2°46.278 -999 13 9 101870 100
2006-04-26 08:55 51°30.504 2°46.146 -999 49 9.1 101880 100
2006-04-26 08:56 51°30.342 2°46.35 -999 64 9 101880 100
2006-04-26 08:57 51°30.183 2°46.603 -999 60 8.9 101880 100
2006-04-26 08:58 51°30.059 2°46.868 -999 92 8.9 101880 100
2006-04-26 08:59 51°30.142 2°47.143 -999 294 9 101900 100
2006-04-26 09:00 51°30.259 2°47.414 -999 307 9.1 101900 100
2006-04-26 09:01 51°30.365 2°47.679 -999 348 9.3 101900 100
2006-04-26 09:02 51°30.479 2°47.966 -999 275 9.5 101900 100
2006-04-26 09:03 51°30.587 2°48.239 -999 227 9.6 101900 100
2006-04-26 09:04 51°30.69 2°48.519 -999 319 9.8 101900 100
2006-04-26 09:05 51°30.801 2°48.794 -999 271 9.9 101900 100
2006-04-26 09:06 51°30.913 2°49.075 -999 318 10 101910 100
2006-04-26 09:07 51°31.026 2°49.351 -999 256 10.1 101900 100
2006-04-26 09:08 51°31.127 2°49.638 -999 229 10.2 101900 100
2006-04-26 09:09 51°31.233 2°49.916 -999 269 10.3 101910 100
2006-04-26 09:10 51°31.337 2°50.196 -999 248 10.4 101910 100
2006-04-26 09:11 51°31.444 2°50.469 -999 285 10.4 101900 100
2006-04-26 09:12 51°31.544 2°50.746 -999 317 10.5 101910 100
2006-04-26 09:13 51°31.647 2°51.035 -999 359 10.6 101900 100
2006-04-26 09:14 51°31.751 2°51.318 -999 306 10.8 101900 99
2006-04-26 09:15 51°31.854 2°51.611 -999 353 10.8 101900 99
2006-04-26 09:16 51°31.959 2°51.892 -999 282 10.9 101900 98
2006-04-26 09:17 51°32.065 2°52.175 -999 281 11 101900 98
2006-04-26 09:18 51°32.173 2°52.457 -999 292 11.1 101900 97
2006-04-26 09:19 51°32.288 2°52.735 -999 296 11.1 101900 96
2006-04-26 09:20 51°32.407 2°53.007 -999 301 11.1 101900 95
2006-04-26 09:21 51°32.519 2°53.287 -999 247 11.1 101900 94
2006-04-26 09:22 51°32.633 2°53.573 -999 296 11.1 101900 93
2006-04-26 09:23 51°32.75 2°53.85 -999 302 11.1 101900 92
2006-04-26 09:24 51°32.864 2°54.128 -999 294 11 101910 91
2006-04-26 09:25 51°32.982 2°54.401 -999 317 11 101900 90
2006-04-26 09:26 51°33.099 2°54.678 -999 270 11 101900 90
2006-04-26 09:27 51°33.209 2°54.967 -999 285 11 101910 89
2006-04-26 09:28 51°33.317 2°55.259 -999 268 11 101900 89
2006-04-26 09:29 51°33.433 2°55.541 -999 262 11 101900 88
2006-04-26 09:30 51°33.554 2°55.816 -999 274 11 101900 87
2006-04-26 09:31 51°33.664 2°56.105 -999 300 11 101900 86
2006-04-26 09:32 51°33.778 2°56.393 -999 292 11 101900 86
2006-04-26 09:33 51°33.9 2°56.676 -999 227 11 101900 86
2006-04-26 09:34 51°34.018 2°56.966 -999 291 11 101900 86
2006-04-26 09:35 51°34.135 2°57.254 -999 287 11 101900 85
2006-04-26 09:36 51°34.255 2°57.548 -999 256 11 101890 84
2006-04-26 09:37 51°34.373 2°57.843 -999 258 10.9 101890 84
2006-04-26 09:38 51°34.462 2°58.167 -999 251 10.9 101900 84
2006-04-26 09:39 51°34.555 2°58.488 -999 222 11 101900 84
2006-04-26 09:40 51°34.646 2°58.817 -999 232 11 101900 84
2006-04-26 09:41 51°34.737 2°59.147 -999 216 11 101900 83
2006-04-26 09:42 51°34.82 2°59.479 -999 195 11.1 101900 83
2006-04-26 09:43 51°34.915 2°59.799 -999 274 11.1 101900 83
2006-04-26 09:44 51°35.046 3°0.085 -999 281 11.1 101890 82
2006-04-26 09:45 51°35.175 3°0.371 -999 270 11.1 101890 82
2006-04-26 09:46 51°35.141 3°0.694 -999 80 10.9 101890 81
2006-04-26 09:47 51°34.956 3°0.894 -999 51 10.3 101870 83
2006-04-26 09:48 51°34.751 3°0.815 -999 25 9.8 101860 86
2006-04-26 09:49 51°34.576 3°0.613 -999 21 9.7 101860 89
2006-04-26 09:50 51°34.401 3°0.41 -999 21 9.6 101870 90
2006-04-26 09:51 51°34.239 3°0.187 -999 15 9.7 101870 90
2006-04-26 09:52 51°34.083 2°59.954 -999 21 9.6 101860 91
2006-04-26 09:53 51°33.928 2°59.723 -999 20 9.6 101870 91
2006-04-26 09:54 51°33.773 2°59.491 -999 17 9.6 101880 91
2006-04-26 09:55 51°33.629 2°59.243 -999 16 9.6 101870 91
2006-04-26 09:56 51°33.489 2°58.991 -999 21 9.6 101870 91
2006-04-26 09:57 51°33.347 2°58.743 -999 19 9.5 101870 91
2006-04-26 09:58 51°33.208 2°58.495 -999 18 9.5 101870 92
2006-04-26 09:59 51°33.068 2°58.248 -999 19 9.5 101870 91
2006-04-26 10:00 51°32.93 2°58 -999 18 9.5 101880 91
2006-04-26 10:01 51°32.789 2°57.754 -999 17 9.5 101880 91
2006-04-26 10:02 51°32.649 2°57.507 -999 18 9.5 101880 91
2006-04-26 10:03 51°32.511 2°57.264 -999 19 9.5 101890 91
2006-04-26 10:04 51°32.369 2°57.013 -999 20 9.5 101890 91
2006-04-26 10:05 51°32.234 2°56.774 -999 21 9.5 101880 91
2006-04-26 10:06 51°32.087 2°56.526 -999 28 9.5 101880 91
2006-04-26 10:07 51°31.884 2°56.47 -999 52 9.4 101870 90
2006-04-26 10:08 51°31.68 2°56.62 -999 57 9.2 101890 91
2006-04-26 10:09 51°31.522 2°56.887 -999 73 9.2 101890 92
2006-04-26 10:10 51°31.42 2°57.225 -999 82 9.1 101910 92
2006-04-26 10:11 51°31.415 2°57.593 -999 40 9.1 101920 93
2006-04-26 10:12 51°31.474 2°57.954 -999 303 9.3 101930 93
2006-04-26 10:13 51°31.549 2°58.316 -999 327 9.5 101920 94
2006-04-26 10:14 51°31.626 2°58.677 -999 317 9.7 101920 93
2006-04-26 10:15 51°31.701 2°59.045 -999 339 9.9 101920 93
2006-04-26 10:16 51°31.778 2°59.411 -999 314 10 101920 92
2006-04-26 10:17 51°31.85 2°59.78 -999 341 10.1 101930 92
2006-04-26 10:18 51°31.927 3°0.14 -999 298 10.3 101930 91
2006-04-26 10:19 51°32.004 3°0.511 -999 321 10.4 101930 90
2006-04-26 10:20 51°32.08 3°0.878 -999 327 10.4 101930 89
2006-04-26 10:21 51°32.121 3°1.255 -999 9 10.6 101930 89
2006-04-26 10:22 51°32.165 3°1.638 -999 4 10.8 101930 87
2006-04-26 10:23 51°32.207 3°2.024 -999 8 10.9 101930 86
2006-04-26 10:24 51°32.248 3°2.409 -999 35 11 101930 85
2006-04-26 10:25 51°32.279 3°2.784 -999 66 11.1 101930 83
2006-04-26 10:26 51°32.186 3°3.138 -999 71 10.6 101920 82
2006-04-26 10:27 51°32.047 3°3.44 -999 74 10.1 101910 84
2006-04-26 10:28 51°31.881 3°3.688 -999 65 9.7 101920 86
2006-04-26 10:29 51°31.702 3°3.901 -999 65 9.5 101900 88
2006-04-26 10:30 51°31.52 3°4.096 -999 62 9.3 101910 89
2006-04-26 10:31 51°31.34 3°4.289 -999 61 9.3 101910 90
2006-04-26 10:32 51°31.158 3°4.483 -999 66 9.2 101910 91
2006-04-26 10:33 51°30.978 3°4.678 -999 71 9.2 101910 91
2006-04-26 10:34 51°30.797 3°4.874 -999 65 9.1 101910 92
2006-04-26 10:35 51°30.615 3°5.068 -999 64 9.2 101910 92
2006-04-26 10:36 51°30.438 3°5.257 -999 64 9.2 101910 92
2006-04-26 10:37 51°30.246 3°5.455 -999 69 9.2 101900 92
2006-04-26 10:38 51°30.06 3°5.651 -999 67 9.2 101910 93
2006-04-26 10:39 51°29.874 3°5.846 -999 63 9.2 101910 93
2006-04-26 10:40 51°29.689 3°6.042 -999 61 9.2 101910 93
2006-04-26 10:41 51°29.504 3°6.24 -999 63 9.2 101910 94
2006-04-26 10:42 51°29.319 3°6.44 -999 71 9.2 101910 94
2006-04-26 10:43 51°29.136 3°6.644 -999 58 9.2 101920 94
2006-04-26 10:44 51°28.949 3°6.844 -999 58 9.2 101910 94
2006-04-26 10:45 51°28.757 3°7.024 -999 59 9.2 101910 94
2006-04-26 10:46 51°28.566 3°7.202 -999 62 9.3 101910 94
2006-04-26 10:47 51°28.372 3°7.371 -999 61 9.2 101910 94
2006-04-26 10:48 51°28.173 3°7.52 -999 61 9.3 101910 94
2006-04-26 10:49 51°27.973 3°7.668 -999 59 9.3 101910 94
2006-04-26 10:50 51°27.772 3°7.815 -999 58 9.3 101900 94
2006-04-26 10:51 51°27.573 3°7.963 -999 60 9.3 101910 94
2006-04-26 10:52 51°27.374 3°8.113 -999 57 9.2 101910 94
2006-04-26 10:53 51°27.174 3°8.256 -999 59 9.2 101900 94
2006-04-26 10:54 51°26.969 3°8.366 -999 49 9.3 101910 94
2006-04-26 10:55 51°26.764 3°8.375 -999 42 9.3 101900 94
2006-04-26 10:56 51°26.579 3°8.262 -999 30 9.3 101900 94
2006-04-26 10:57 51°26.43 3°8.069 -999 24 9.4 101900 94
2006-04-26 10:58 51°26.29 3°7.862 -999 24 9.7 101910 94
2006-04-26 10:59 51°26.151 3°7.656 -999 27 9.7 101910 93
2006-04-26 11:00 51°26.01 3°7.456 -999 29 9.8 101910 93
2006-04-26 11:01 51°25.856 3°7.283 -999 31 9.8 101910 93
2006-04-26 11:02 51°25.675 3°7.2 -999 51 9.8 101910 92
2006-04-26 11:03 51°25.474 3°7.24 -999 45 9.7 101910 93
2006-04-26 11:04 51°25.273 3°7.279 -999 50 9.6 101910 93
2006-04-26 11:05 51°25.08 3°7.419 -999 62 9.5 101910 94
2006-04-26 11:06 51°24.898 3°7.62 -999 71 9.5 101920 94
2006-04-26 11:07 51°24.757 3°7.901 -999 81 9.4 101920 94
2006-04-26 11:08 51°24.786 3°8.276 -999 308 9.5 101940 94
2006-04-26 11:09 51°24.84 3°8.658 -999 290 9.7 101940 94
2006-04-26 11:10 51°24.881 3°9.044 -999 232 9.9 101940 95
2006-04-26 11:11 51°24.921 3°9.433 -999 332 10.1 101930 95
2006-04-26 11:12 51°24.951 3°9.82 -999 331 10.3 101930 95
2006-04-26 11:13 51°24.989 3°10.203 -999 213 10.5 101930 94
2006-04-26 11:14 51°25.012 3°10.59 -999 28 10.7 101930 93
2006-04-26 11:15 51°25.044 3°10.973 -999 18 10.8 101930 93
2006-04-26 11:16 51°25.04 3°11.358 -999 94 11 101930 90
2006-04-26 11:17 51°25.035 3°11.742 -999 100 10.9 101930 88
2006-04-26 11:18 51°25.025 3°12.124 -999 124 10.7 101930 87
2006-04-26 11:19 51°25.031 3°12.507 -999 117 10.7 101920 87
2006-04-26 11:20 51°25.018 3°12.891 -999 95 10.7 101930 86
2006-04-26 11:21 51°24.984 3°13.268 -999 76 10.6 101930 86
2006-04-26 11:22 51°24.949 3°13.66 -999 64 10.5 101920 86
2006-04-26 11:23 51°24.85 3°13.957 -999 57 10.4 101920 86
2006-04-26 11:24 51°24.698 3°13.816 -999 25 10.1 101900 88
2006-04-26 11:25 51°24.608 3°13.556 -999 12 10.1 101900 88
2006-04-26 11:26 51°24.548 3°13.278 -999 9 10.1 101900 87
2006-04-26 11:27 51°24.484 3°13.004 -999 12 10.1 101900 87
2006-04-26 11:28 51°24.394 3°12.75 -999 18 10.2 101900 88
2006-04-26 11:29 51°24.298 3°12.505 -999 19 10.1 101900 88
2006-04-26 11:30 51°24.201 3°12.267 -999 22 10.1 101900 88
2006-04-26 11:31 51°24.095 3°12.03 -999 21 10.1 101900 88
2006-04-26 11:32 51°23.996 3°11.789 -999 19 10.1 101890 88
2006-04-26 11:33 51°23.895 3°11.546 -999 17 10.2 101900 88
2006-04-26 11:34 51°23.794 3°11.302 -999 18 10.2 101900 88
2006-04-26 11:35 51°23.686 3°11.06 -999 22 10.2 101900 88
2006-04-26 11:36 51°23.572 3°10.824 -999 24 10.2 101890 87
2006-04-26 11:37 51°23.46 3°10.587 -999 23 10.2 101900 87
2006-04-26 11:38 51°23.351 3°10.353 -999 22 10.2 101910 87
2006-04-26 11:39 51°23.239 3°10.112 -999 25 10.2 101900 87
2006-04-26 11:40 51°23.127 3°9.866 -999 23 10.2 101900 87
2006-04-26 11:41 51°23.011 3°9.621 -999 21 10.2 101900 87
2006-04-26 11:42 51°22.899 3°9.374 -999 24 10.2 101900 87
2006-04-26 11:43 51°22.784 3°9.132 -999 21 10.2 101900 87
2006-04-26 11:44 51°22.683 3°8.884 -999 21 10.2 101900 87
2006-04-26 11:45 51°22.582 3°8.638 -999 18 10.2 101900 87
2006-04-26 11:46 51°22.489 3°8.384 -999 20 10.2 101900 86
2006-04-26 11:47 51°22.405 3°8.132 -999 18 10.2 101910 86
2006-04-26 11:48 51°22.329 3°7.856 -999 15 10.2 101910 86
2006-04-26 11:49 51°22.249 3°7.594 -999 16 10.2 101910 86
2006-04-26 11:50 51°22.167 3°7.331 -999 18 10.2 101910 87
2006-04-26 11:51 51°22.088 3°7.07 -999 20 10.2 101910 86
2006-04-26 11:52 51°22.014 3°6.806 -999 18 10.2 101910 87
2006-04-26 11:53 51°21.943 3°6.537 -999 21 10.2 101910 88
2006-04-26 11:54 51°21.87 3°6.267 -999 20 10.2 101900 88
2006-04-26 11:55 51°21.761 3°6.033 -999 31 10.2 101910 88
2006-04-26 11:56 51°21.621 3°5.841 -999 29 10.1 101910 88
2006-04-26 11:57 51°21.484 3°5.646 -999 29 10.1 101910 88
2006-04-26 11:58 51°21.354 3°5.44 -999 31 10.1 101920 89
2006-04-26 11:59 51°21.218 3°5.233 -999 31 10 101920 89
2006-04-26 12:00 51°21.081 3°5.022 -999 30 9.9 101910 88
2006-04-26 12:01 51°20.946 3°4.804 -999 31 9.9 101920 89
2006-04-26 12:02 51°20.859 3°4.535 -999 23 10 101920 90
2006-04-26 12:03 51°20.788 3°4.25 -999 17 10.1 101930 90
2006-04-26 12:04 51°20.717 3°3.965 -999 18 10.1 101920 89
2006-04-26 12:05 51°20.647 3°3.692 -999 18 10.1 101920 88
2006-04-26 12:06 51°20.601 3°3.381 -999 14 10.1 101920 88
2006-04-26 12:07 51°20.562 3°3.075 -999 17 10 101930 87
2006-04-26 12:08 51°20.523 3°2.766 -999 15 10 101910 87
2006-04-26 12:09 51°20.486 3°2.457 -999 19 10.3 101930 87
2006-04-26 12:10 51°20.452 3°2.154 -999 17 10 101920 87
2006-04-26 12:11 51°20.42 3°1.841 -999 14 10 101920 87
2006-04-26 12:12 51°20.382 3°1.533 -999 11 10 101930 87
2006-04-26 12:13 51°20.349 3°1.222 -999 17 10 101930 87
2006-04-26 12:14 51°20.311 3°0.912 -999 15 10 101930 87
2006-04-26 12:15 51°20.254 3°0.614 -999 19 10 101930 87
2006-04-26 12:16 51°20.201 3°0.315 -999 16 10.1 101930 87
2006-04-26 12:17 51°20.149 3°0.018 -999 16 10 101930 87
2006-04-26 12:18 51°20.093 2°59.727 -999 22 10 101930 87
2006-04-26 12:19 51°20.018 2°59.448 -999 25 10.1 101940 87
2006-04-26 12:20 51°19.947 2°59.163 -999 24 10.1 101940 87
2006-04-26 12:21 51°19.88 2°58.875 -999 21 10.1 101940 86
2006-04-26 12:22 51°19.814 2°58.586 -999 19 10.1 101940 86
2006-04-26 12:23 51°19.747 2°58.296 -999 22 10.1 101940 86
2006-04-26 12:24 51°19.677 2°58.008 -999 22 10.1 101940 86
2006-04-26 12:25 51°19.607 2°57.719 -999 23 10.2 101940 87
2006-04-26 12:26 51°19.536 2°57.432 -999 21 10.2 101950 87
2006-04-26 12:27 51°19.458 2°57.149 -999 26 10.2 101950 87
2006-04-26 12:28 51°19.382 2°56.862 -999 27 10.2 101950 86
2006-04-26 12:29 51°19.305 2°56.576 -999 23 10.2 101950 86
2006-04-26 12:30 51°19.227 2°56.291 -999 23 10.2 101960 86
2006-04-26 12:31 51°19.153 2°56.001 -999 22 10.3 101960 86
2006-04-26 12:32 51°19.076 2°55.712 -999 22 10.2 101960 86
2006-04-26 12:33 51°19 2°55.422 -999 23 10.3 101960 87
2006-04-26 12:34 51°18.923 2°55.134 -999 22 10.3 101960 87
2006-04-26 12:35 51°18.847 2°54.845 -999 22 10.3 101960 87
2006-04-26 12:36 51°18.771 2°54.556 -999 20 10.3 101960 87
2006-04-26 12:37 51°18.693 2°54.267 -999 23 10.3 101960 87
2006-04-26 12:38 51°18.618 2°53.973 -999 19 10.3 101960 87
2006-04-26 12:39 51°18.539 2°53.685 -999 23 10.3 101960 87
2006-04-26 12:40 51°18.462 2°53.394 -999 24 10.3 101960 87
2006-04-26 12:41 51°18.383 2°53.105 -999 20 10.3 101960 87
2006-04-26 12:42 51°18.3 2°52.82 -999 26 10.3 101950 87
2006-04-26 12:43 51°18.178 2°52.582 -999 36 10.3 101960 87
2006-04-26 12:44 51°18.004 2°52.447 -999 42 10.1 101960 87
2006-04-26 12:45 51°17.812 2°52.381 -999 46 9.9 101960 88
2006-04-26 12:46 51°17.613 2°52.36 -999 55 9.8 101960 89
2006-04-26 12:47 51°17.412 2°52.391 -999 54 9.7 101970 89
2006-04-26 12:48 51°17.213 2°52.465 -999 50 9.8 101970 90
2006-04-26 12:49 51°17.016 2°52.565 -999 56 9.7 101970 90
2006-04-26 12:50 51°16.821 2°52.686 -999 54 9.7 101970 90
2006-04-26 12:51 51°16.629 2°52.812 -999 54 9.8 101970 90
2006-04-26 12:52 51°16.438 2°52.949 -999 52 9.8 101970 90
2006-04-26 12:53 51°16.245 2°53.084 -999 54 9.9 101970 90
2006-04-26 12:54 51°16.051 2°53.205 -999 60 9.9 101970 89
2006-04-26 12:55 51°15.855 2°53.329 -999 58 9.9 101970 89
2006-04-26 12:56 51°15.657 2°53.452 -999 58 9.9 101970 89
2006-04-26 12:57 51°15.517 2°53.666 -999 107 9.9 101980 89
2006-04-26 12:58 51°15.428 2°53.874 -999 92 10 101990 89
2006-04-26 12:59 51°15.303 2°54.061 -999 74 10.1 101980 88
2006-04-26 13:00 51°15.143 2°54.249 -999 70 10.2 101980 88
2006-04-26 13:01 51°14.962 2°54.42 -999 61 10.1 101980 88
2006-04-26 13:02 51°14.78 2°54.553 -999 62 10.1 101970 88
2006-04-26 13:03 51°14.6 2°54.692 -999 72 10.1 101980 88
2006-04-26 13:04 51°14.445 2°54.906 -999 50 10.1 101980 88
2006-04-26 13:05 51°14.321 2°55.141 -999 84 10.2 101980 88
2006-04-26 13:06 51°14.228 2°55.322 -999 111 10.3 101980 88
2006-04-26 13:07 51°14.138 2°55.41 -999 119 10.4 101980 88
2006-04-26 13:08 51°14.054 2°55.47 -999 126 10.6 101980 87
2006-04-26 13:09 51°13.968 2°55.535 -999 73 10.8 101980 85
2006-04-26 13:10 51°13.859 2°55.612 -999 119 10.8 101980 82
2006-04-26 13:11 51°13.752 2°55.716 -999 109 11 101980 82
2006-04-26 13:12 51°13.686 2°55.839 -999 161 11.2 101990 80
2006-04-26 13:13 51°13.647 2°55.934 -999 193 11.3 101980 79
2006-04-26 13:14 51°13.62 2°56.007 -999 212 11.4 101980 76
2006-04-26 13:15 51°13.607 2°56.066 -999 220 11.3 101980 75
2006-04-26 13:16 51°13.603 2°56.092 -999 204 11.4 101980 75
2006-04-26 13:17 51°13.602 2°56.098 -999 187 11.3 101990 75